Location: Allison Elementary School
(34.0784°N, 117.7317°W)
Time: 03:14:17
(UTC+00:00)

COSMO-SKYMED 1 - Visible Passes

Search period start: 28 February 2020 00:00
Search period end: 09 March 2020 00:00
Orbit: 621 x 623 km, 97.9° (Epoch: 27 February)

Date Brightness Start Highest point End Pass type
(mag) Time Alt. Az. Time Alt. Az. Time Alt. Az.
28 Feb 5.5 02:56:43 10° NNW 02:59:33 17° WNW 03:02:23 10° WSW visible
28 Feb 5.4 12:11:57 10° ESE 12:14:50 18° ENE 12:17:43 10° NNE visible
28 Feb 3.2 13:46:48 10° SSW 13:50:42 33° W 13:54:38 10° NNW visible
29 Feb 6.0 03:16:22 10° NW 03:17:23 11° WNW 03:18:24 10° W visible
29 Feb 4.7 12:29:03 10° SE 12:32:42 27° ENE 12:36:23 10° NNE visible
01 Mar 3.7 12:46:31 10° SE 12:50:38 44° ENE 12:54:46 10° N visible
02 Mar 3.6 02:13:34 10° N 02:17:47 51° WNW 02:21:58 10° SSW visible
02 Mar 2.8 13:04:18 10° SSE 13:08:37 75° ENE 13:12:56 10° N visible
03 Mar 4.6 02:31:52 10° N 02:35:43 31° WNW 02:39:32 10° SW visible
03 Mar 2.5 13:22:19 10° S 13:26:36 66° WSW 13:30:56 10° NNW visible
04 Mar 5.4 02:50:26 10° NNW 02:53:36 20° WNW 02:56:45 10° WSW visible
04 Mar 5.6 12:06:24 10° ESE 12:08:53 15° ENE 12:11:22 10° NNE visible
04 Mar 3.0 13:40:38 10° SSW 13:44:40 39° W 13:48:45 10° NNW visible
05 Mar 5.8 03:09:33 10° NW 03:11:27 13° WNW 03:13:19 10° W visible
05 Mar 5.0 12:23:18 10° ESE 12:26:45 24° ENE 12:30:13 10° NNE visible
06 Mar 4.1 12:40:39 10° SE 12:44:39 38° ENE 12:48:40 10° N visible
07 Mar 3.1 12:58:20 10° SSE 13:02:36 63° ENE 13:06:54 10° N visible
08 Mar 4.3 02:25:44 10° N 02:29:44 37° WNW 02:33:43 10° SW visible
08 Mar 2.5 13:16:16 10° S 13:20:35 78° WSW 13:24:56 10° NNW visible
